Vorticity
nan nan nan nan nan nan nan nan nan nan nan nan nan nan nan nan nan nan nan nan nan nan nan nan nan nan nan nan nan nan nan nan nan nan nan nan nan nan nan nan nan nan nan nan nan nan nan nan nan
nan 4 7 8 5 4 8 7 5 7 8 7 4 6 7 6 7 10 10 13 9 7 7 6 8 6 5 4 5 5 5 4 4 4 5 5 5 5 4 4 5 6 5 4 3 4 4 4 nan
nan 5 7 8 4 4 7 6 6 11 8 3 4 6 6 6 11 7 8 14 7 8 7 7 8 6 5 4 5 5 4 4 4 5 5 4 5 5 4 4 6 6 5 4 4 4 4 4 nan
nan 4 8 7 4 5 7 3 7 7 5 8 6 4 4 12 12 12 12 7 6 8 7 7 7 7 6 5 5 5 5 4 5 5 5 5 4 4 3 4 6 6 5 4 4 4 4 5 nan
nan 8 8 5 7 7 5 5 9 5 7 7 7 6 3 8 11 15 9 6 6 7 7 7 7 7 6 5 5 5 5 4 5 5 5 5 5 4 4 4 4 5 5 4 4 4 4 5 nan
nan 9 5 7 7 6 9 10 7 9 7 4 9 9 5 6 8 7 7 7 9 9 6 7 7 6 6 5 5 5 5 4 5 5 5 6 5 5 5 5 4 4 4 4 4 3 4 5 nan
nan 7 6 5 5 7 9 10 12 10 6 7 6 2 6 8 10 8 7 8 11 9 5 6 7 7 6 5 5 5 5 5 5 5 5 6 5 5 5 5 5 4 4 4 4 3 3 4 nan
nan 7 7 6 7 6 5 11 10 8 9 7 6 6 8 15 9 6 6 9 9 7 5 3 6 7 7 8 7 6 5 6 6 6 6 6 5 5 5 5 5 5 4 4 4 3 3 4 nan
nan 6 7 8 5 4 4 7 8 11 9 7 7 7 17 15 4 3 2 7 8 7 7 4 3 4 7 8 8 8 6 6 6 6 5 3 5 8 7 6 6 5 5 5 4 4 4 5 nan
nan 7 7 5 3 7 8 5 7 10 5 6 3 12 17 7 4 4 3 4 7 8 5 6 5 3 4 6 7 7 7 7 7 7 6 6 7 7 7 8 8 7 6 6 6 5 5 6 nan
nan 4 6 6 6 7 6 8 12 5 5 9 7 9 7 3 4 5 6 7 7 6 8 7 6 5 4 5 5 6 7 8 9 8 7 6 7 7 7 7 8 9 8 7 8 7 8 6 nan
nan 8 5 5 4 4 8 9 11 6 5 9 16 10 6 6 6 6 6 7 7 6 8 9 7 5 3 6 7 6 6 6 7 8 7 6 7 7 7 7 8 7 8 7 7 7 7 6 nan
nan 6 5 5 5 7 8 9 11 7 7 12 16 10 6 5 4 6 7 7 8 8 7 8 7 6 6 4 5 7 7 6 7 7 6 5 7 7 7 7 7 7 8 8 8 7 7 9 nan
nan 7 7 9 10 9 9 7 6 10 12 12 9 5 7 7 6 2 7 7 6 6 7 7 7 6 6 5 5 5 6 7 7 7 8 6 5 6 7 7 7 7 7 7 8 8 9 9 nan
nan 9 15 11 11 10 9 4 8 6 9 7 5 5 9 7 8 8 6 5 6 6 7 8 7 6 6 5 4 6 7 7 7 8 10 7 5 6 6 6 7 8 8 8 7 8 8 8 nan
nan 9 8 10 9 11 8 6 8 10 10 5 8 8 7 12 8 5 7 8 7 9 9 6 8 7 6 6 5 6 7 7 7 8 9 9 7 6 6 6 7 9 8 8 8 7 7 7 nan
nan 10 4 8 8 12 4 6 6 8 7 8 10 8 8 8 7 9 8 8 8 7 8 8 7 7 7 6 7 9 8 7 7 7 9 10 8 6 6 6 8 9 8 9 7 7 8 7 nan
nan 6 7 7 6 9 10 7 2 1 5 11 9 9 9 11 8 10 7 6 8 10 8 8 9 9 7 6 7 7 7 8 7 7 8 8 8 8 5 6 9 8 8 8 8 7 7 10 nan
nan 7 3 7 4 7 11 3 7 8 6 9 10 11 10 11 11 11 12 10 9 9 9 8 6 7 6 7 6 8 7 5 7 9 9 7 8 8 6 7 8 8 9 8 5 6 8 8 nan
nan 7 6 7 9 3 2 8 13 14 12 9 7 7 10 9 10 11 15 15 10 9 8 7 6 6 3 4 7 8 11 10 8 9 11 9 8 8 7 7 8 7 6 8 7 5 6 9 nan
nan 7 9 6 11 10 7 8 9 14 7 9 12 7 8 8 7 10 13 15 13 11 11 11 9 6 5 3 2 4 6 11 11 9 9 10 9 8 8 7 8 8 7 7 7 5 6 6 nan
nan 15 8 7 9 13 10 11 11 11 7 10 8 10 6 7 12 11 10 11 13 13 11 10 12 10 9 10 8 6 0 3 7 8 9 11 12 9 8 8 9 6 7 9 7 5 6 8 nan
nan 9 13 10 7 8 9 10 0 8 13 14 11 10 11 9 6 6 14 16 11 14 13 11 12 12 14 10 3 4 5 3 9 13 12 9 11 11 8 8 8 7 7 10 8 6 6 6 nan
nan 11 11 9 8 6 9 3 5 12 9 6 6 6 9 11 11 12 10 12 13 10 11 14 16 13 11 10 10 6 5 4 3 8 10 8 9 11 10 9 8 9 9 8 9 8 6 6 nan
nan 7 10 10 10 13 14 8 9 -0 12 9 9 9 10 9 8 10 10 8 12 13 10 10 11 12 13 12 10 8 7 9 6 5 8 7 6 9 13 9 8 10 10 9 10 10 8 9 nan
nan 7 8 7 5 11 9 4 6 -4 4 11 11 10 7 7 6 6 12 11 6 10 15 11 9 11 11 11 10 10 8 6 10 8 7 8 9 9 11 10 10 9 11 10 9 8 10 10 nan
nan 10 9 8 9 12 5 4 8 8 5 5 3 5 6 7 8 7 8 9 9 9 12 14 11 10 11 10 11 11 11 8 7 8 7 9 10 12 12 12 8 9 10 9 8 8 10 9 nan
nan 8 9 11 12 9 9 16 13 14 17 3 6 7 7 8 8 10 9 7 8 10 13 14 12 9 10 12 13 13 12 10 8 10 11 8 8 11 11 9 9 9 8 8 8 8 9 9 nan
nan 11 12 13 10 7 10 7 16 15 4 2 4 4 8 8 7 9 12 11 10 10 11 11 12 10 10 16 18 13 12 12 10 9 11 10 10 10 10 10 10 9 10 10 8 11 9 9 nan
nan nan nan nan nan nan nan nan nan nan nan nan nan nan nan nan nan nan nan nan nan nan nan nan nan nan nan nan nan nan nan nan nan nan nan nan nan nan nan nan nan nan nan nan nan nan nan nan nan
CAPE
0 0 0 0 0 0 0 0 0 0 0 0 0 0 0 1 8 0 8 216 510 860 1046 1224 950 992 961 1077 1330 1565 1710 1732 1546 1544 1654 1645 1447 1369 1248 1368 1480 1265 720 563 448 234 30 3 10
0 0 0 0 0 0 0 0 0 0 0 0 2 19 25 43 103 114 197 538 632 839 921 1071 834 987 1015 1053 1331 1527 1591 1580 1638 1529 1356 1364 1326 1289 1122 1086 1371 1310 854 686 543 222 26 23 60
0 0 0 0 0 0 0 0 0 0 1 4 35 25 4 4 127 121 171 625 765 835 833 950 712 914 1028 1091 1251 1424 1539 1553 1549 1462 1265 1203 1217 1134 1092 1208 1268 1236 934 785 526 117 16 26 133
0 0 0 0 0 0 0 0 0 15 21 108 100 125 41 47 115 117 507 719 727 767 797 850 596 846 1041 1167 1246 1387 1439 1416 1365 1323 1339 1240 1178 1074 1030 1241 1256 1132 763 542 196 45 20 53 62
0 0 0 0 0 0 0 0 0 0 0 243 245 216 149 92 127 309 611 666 604 664 675 666 517 743 1113 1357 1274 1199 1224 1216 1211 1296 1325 1309 1332 1234 1277 1172 1104 910 591 293 164 86 81 58 47
0 0 0 0 0 0 0 0 0 0 19 470 562 265 170 105 180 305 474 490 569 533 586 566 553 618 1041 1278 1107 903 955 972 1000 1134 1234 1280 1248 1186 1172 1186 1084 899 640 399 165 49 41 44 55
0 0 0 0 0 0 0 0 0 0 295 684 474 306 110 94 65 127 163 358 469 493 470 450 453 491 851 997 841 669 676 747 767 860 989 1016 778 746 842 858 971 854 521 308 138 47 23 19 4
0 0 0 0 0 0 0 0 0 77 432 427 218 328 368 34 11 0 59 179 352 321 390 367 274 300 392 557 586 545 506 531 555 595 694 649 517 557 633 640 756 744 583 352 213 116 28 4 0
0 0 0 0 0 0 0 0 0 2 522 464 451 377 142 0 0 0 0 22 127 124 292 323 341 138 104 146 353 399 402 371 387 442 487 432 196 266 397 335 397 569 457 388 266 99 12 0 0
0 0 0 0 0 0 0 0 0 285 375 577 661 83 47 0 0 0 1 15 95 90 123 174 206 136 30 114 153 88 150 170 157 207 223 64 9 10 61 71 110 249 226 174 109 56 16 3 0
0 0 0 0 0 0 0 0 0 68 46 38 517 177 78 0 0 0 0 0 21 68 100 61 87 88 18 55 18 1 4 2 4 48 24 0 0 0 2 0 2 0 48 0 4 1 0 0 0
0 0 0 0 0 0 0 0 0 0 0 0 147 147 99 80 5 0 0 0 0 0 31 44 23 9 0 0 5 0 0 0 0 0 0 0 0 0 0 0 0 0 0 0 0 0 0 0 0
0 0 0 0 0 0 0 0 0 0 0 0 50 234 158 139 95 72 31 3 0 0 0 0 1 8 1 0 0 0 0 0 0 0 0 0 0 0 0 0 0 0 0 0 0 0 0 0 0
0 0 0 0 0 0 0 0 0 0 0 0 143 190 271 203 155 165 167 103 17 0 0 0 0 3 0 0 0 0 0 0 0 0 0 0 0 0 0 0 0 0 0 0 0 0 9 0 0
0 0 0 0 0 0 0 0 0 0 0 0 300 100 137 406 422 359 334 239 131 43 0 0 0 0 0 0 0 0 0 0 0 0 0 0 0 0 0 0 0 0 0 0 0 0 0 0 0
0 0 0 0 0 0 0 0 0 0 0 0 21 330 186 151 434 662 649 545 339 214 56 0 0 0 0 0 0 0 0 0 0 0 0 0 0 0 0 0 0 2 0 0 0 0 0 0 0
0 0 0 0 0 0 0 0 0 0 0 0 0 0 196 386 297 462 584 742 781 470 257 94 4 3 0 0 0 0 0 0 0 0 0 5 16 27 31 58 102 59 74 87 12 0 0 0 0
0 0 0 0 0 0 0 0 0 0 0 0 0 0 0 31 417 602 514 553 752 852 611 350 157 57 7 0 0 0 0 0 0 0 0 17 43 109 160 146 115 60 105 0 0 0 0 0 0
0 0 0 0 0 0 0 0 0 0 0 0 0 0 0 0 0 85 658 692 606 699 911 851 630 344 86 23 17 33 17 15 4 0 7 40 83 144 199 217 57 18 0 0 0 0 0 0 0
0 0 0 0 0 0 0 0 0 0 0 0 0 0 0 0 0 0 0 484 769 680 926 1099 1081 763 321 195 132 88 95 94 117 136 122 90 111 213 266 182 59 0 0 0 0 0 0 0 0
0 0 0 0 0 0 0 0 0 0 0 0 0 0 0 0 0 0 0 0 276 714 648 1050 1170 1105 862 593 337 296 282 191 449 412 332 184 194 237 296 132 41 0 0 0 0 0 0 0 0
0 0 0 0 0 0 0 0 0 0 0 0 0 0 0 0 0 0 0 0 0 69 511 432 897 1098 1092 884 735 664 673 574 503 453 456 428 270 254 251 93 4 0 0 0 0 0 0 0 0
0 0 0 0 0 0 0 0 0 0 0 0 0 0 0 0 0 0 0 0 0 0 0 31 385 703 976 1086 1018 820 789 764 608 502 602 513 287 249 199 16 0 0 0 0 0 0 0 0 0
0 0 0 0 0 0 0 0 0 0 0 0 0 0 0 0 0 0 0 0 0 0 0 0 5 401 725 980 1136 996 946 918 720 508 586 572 330 197 43 0 0 0 0 0 0 0 0 0 0
0 0 0 0 0 0 0 0 0 0 0 0 0 0 0 0 0 0 0 0 0 0 0 0 3 133 409 648 1113 1208 1040 946 850 602 555 591 182 59 0 0 0 0 0 0 0 0 0 0 0
0 0 0 0 0 0 0 0 0 0 0 0 0 0 0 0 0 0 0 0 0 0 0 0 6 163 255 437 736 1094 1200 1041 915 638 615 491 263 52 0 0 0 0 0 0 0 0 0 0 0
0 0 0 0 0 0 0 0 0 0 0 0 0 0 0 0 0 0 0 0 0 0 0 0 0 14 138 328 511 762 1061 1138 1002 784 500 375 121 1 0 0 0 0 0 0 0 0 0 0 0
0 0 0 0 0 0 0 0 0 0 0 0 0 0 0 0 0 0 0 0 0 0 0 0 0 0 0 34 414 544 742 998 1017 718 373 251 10 0 0 0 0 0 0 0 0 0 0 0 0
0 0 0 0 0 6 0 0 0 0 0 0 0 0 0 0 0 0 0 0 0 0 0 0 0 0 0 0 126 543 650 777 777 653 269 97 0 0 0 0 0 0 0 0 0 0 0 0 0
0 0 0 0 0 0 3 0 0 0 0 0 0 0 0 0 0 0 0 0 0 0 0 0 0 0 0 0 76 635 774 779 664 411 142 0 0 0 0 0 0 0 0 0 0 0 0 0 0